DMSP 5D-2 F13 DEB, 42289

Orbit data source: Space-Track

DMSP 5D-2 F13 DEB, 42289 is space debris in SSO originally from a launch on Fri, 24 Mar 1995 UTC launched from the Air Force Western Test Range (AFWTR). Debris objects in space refer to the collection of defunct objects orbiting the Earth. Examples of debris include non-operational satellites, rocket bodies, and fragments generated from explosions, collisions, or faulty payload assembly.

Loading next visibility...
Identifier
42289, 1995-015HF
Orbit
SSO
Country
Flag of USUS
Related business
Manufacturer
Unknown
Mission
Spacecraft
Bus & Motor
Unknown
Mass
Unknown
Launch date (UTC)
1995-03-24 (31 years ago)
Launch vehicle
Unknown
Launch site
Air Force Western Test Range (AFWTR)
Object type
Payload
Rocket body
Debris
Shape & HBR
Unknown shape, 0.1 m
Radar Cross Section
Small (<0.1 m²)

Expand to show TLE details & history
Last TLE update: 2 days ago

TLE from 2 days ago
0 DMSP 5D-2 F13 DEB
1 42289U 95015HF  25312.32172013  .00074865  00000-0  10255-1 0  9991
2 42289  98.8686 338.3840 0018464 212.0557 147.9529 14.77957339542661
Epoch: 2025-11-08T07:43Z
TLE epoch observation values (Epoch: 2025-11-08T07:43:16.619Z)
Latitude
-0.00002°
Longitude
174.81175°
Altitude
649.753 km
Speed
7.527 km/s
True Right ascension
22h 33m 32s
True Declination
0° 00' 00"
Sunlit
Object was in daylight at epoch
Visualization orbit readout
Latitude
Unknown
Longitude
Unknown
Altitude
Unknown
Speed
Unknown
Apparent Right ascension
Unknown
Apparent Declination
Unknown
Sunlit
N/A
Visualization observer readout
Local Sidereal Time
19:03:05
Azimuth
Unknown
Elevation
Unknown
Doppler factor
Unknown
Orbital elements
Apogee altitude
645.814 km
Perigee altitude
619.924 km
Semi-major axis
7,011.006 km
Eccentricity
0.00185
Inclination
98.8686°
RAAN
338.384°
Arg. of periapsis
212.0557°
True anomaly
148.06495°
Mean anomaly
147.9529°
Eccentric anomaly
148.00895°
Mean motion
3.6972 °/min
Orbital period
97.37 mins
BSTAR
0.010255

Documentation

Showing up to 5 results
|